Time,TemperatureF,DewpointF,PressureIn,WindDirection,WindDirectionDegrees,WindSpeedMPH,WindSpeedGustMPH,Humidity,HourlyPrecipIn,Conditions,Clouds,dailyrainin,SoftwareType,DateUTC
2013-01-04 00:05:00,15.8,7.0,25.88,WNW,295,7.0,14.0,68,0.00,,,0.00,weatherlink.com 1.10,2013-01-04 07:05:00,
2013-01-04 00:20:00,15.1,7.0,25.88,NW,311,8.0,10.0,69,0.00,,,0.00,weatherlink.com 1.10,2013-01-04 07:20:00,
2013-01-04 00:35:00,16.1,7.0,25.88,NW,310,8.0,15.0,67,0.00,,,0.00,weatherlink.com 1.10,2013-01-04 07:35:00,
2013-01-04 00:50:00,15.9,6.0,25.87,NW,304,9.0,13.0,66,0.00,,,0.00,weatherlink.com 1.10,2013-01-04 07:50:00,
2013-01-04 01:05:00,15.8,7.0,25.87,NW,310,8.0,13.0,67,0.00,,,0.00,weatherlink.com 1.10,2013-01-04 08:05:00,
2013-01-04 01:20:00,16.8,7.0,25.87,NW,310,10.0,13.0,66,0.00,,,0.00,weatherlink.com 1.10,2013-01-04 08:20:00,
2013-01-04 01:35:00,17.0,7.0,25.87,WNW,302,10.0,12.0,65,0.00,,,0.00,weatherlink.com 1.10,2013-01-04 08:35:00,
2013-01-04 01:50:00,17.1,7.0,25.87,NW,311,9.0,15.0,64,0.00,,,0.00,weatherlink.com 1.10,2013-01-04 08:50:00,
2013-01-04 02:06:00,17.6,7.0,25.87,NW,318,10.0,13.0,63,0.00,,,0.00,weatherlink.com 1.10,2013-01-04 09:06:00,
2013-01-04 02:21:00,17.7,7.0,25.87,NW,308,8.0,13.0,63,0.00,,,0.00,weatherlink.com 1.10,2013-01-04 09:21:00,
2013-01-04 02:36:00,18.2,7.0,25.87,WNW,302,7.0,12.0,62,0.00,,,0.00,weatherlink.com 1.10,2013-01-04 09:36:00,
2013-01-04 02:51:00,18.1,7.0,25.87,WNW,297,8.0,11.0,62,0.00,,,0.00,weatherlink.com 1.10,2013-01-04 09:51:00,
2013-01-04 03:06:00,18.5,7.0,25.87,NW,307,8.0,13.0,61,0.00,,,0.00,weatherlink.com 1.10,2013-01-04 10:06:00,
2013-01-04 03:21:00,19.0,7.0,25.86,NW,313,8.0,13.0,60,0.00,,,0.00,weatherlink.com 1.10,2013-01-04 10:21:00,
2013-01-04 03:36:00,18.6,7.0,25.86,NW,305,8.0,13.0,60,0.00,,,0.00,weatherlink.com 1.10,2013-01-04 10:36:00,
2013-01-04 03:51:00,17.8,7.0,25.86,WNW,285,8.0,11.0,62,0.00,,,0.00,weatherlink.com 1.10,2013-01-04 10:51:00,
2013-01-04 04:06:00,17.8,6.0,25.86,WNW,302,7.0,14.0,61,0.00,,,0.00,weatherlink.com 1.10,2013-01-04 11:06:00,
2013-01-04 04:21:00,18.0,6.0,25.86,WNW,302,9.0,13.0,60,0.00,,,0.00,weatherlink.com 1.10,2013-01-04 11:21:00,
2013-01-04 04:36:00,17.8,6.0,25.86,NW,307,8.0,14.0,60,0.00,,,0.00,weatherlink.com 1.10,2013-01-04 11:36:00,
2013-01-04 04:51:00,17.9,6.0,25.86,WNW,290,9.0,14.0,60,0.00,,,0.00,weatherlink.com 1.10,2013-01-04 11:51:00,
2013-01-04 05:06:00,17.7,6.0,25.86,NNW,338,6.0,13.0,61,0.00,,,0.00,weatherlink.com 1.10,2013-01-04 12:06:00,
2013-01-04 05:21:00,17.1,6.0,25.86,NW,315,10.0,11.0,62,0.00,,,0.00,weatherlink.com 1.10,2013-01-04 12:21:00,
2013-01-04 05:36:00,17.8,6.0,25.85,WNW,302,9.0,12.0,60,0.00,,,0.00,weatherlink.com 1.10,2013-01-04 12:36:00,
2013-01-04 05:51:00,17.7,6.0,25.85,WNW,302,7.0,14.0,60,0.00,,,0.00,weatherlink.com 1.10,2013-01-04 12:51:00,
2013-01-04 06:06:00,17.6,6.0,25.85,NW,311,9.0,15.0,60,0.00,,,0.00,weatherlink.com 1.10,2013-01-04 13:06:00,
2013-01-04 06:21:00,17.7,6.0,25.85,NW,311,10.0,12.0,60,0.00,,,0.00,weatherlink.com 1.10,2013-01-04 13:21:00,
2013-01-04 06:36:00,17.8,6.0,25.85,WNW,294,7.0,13.0,59,0.00,,,0.00,weatherlink.com 1.10,2013-01-04 13:36:00,
2013-01-04 06:51:00,17.3,6.0,25.85,NW,305,6.0,13.0,61,0.00,,,0.00,weatherlink.com 1.10,2013-01-04 13:51:00,
2013-01-04 07:06:00,17.3,6.0,25.85,NW,318,9.0,12.0,61,0.00,,,0.00,weatherlink.com 1.10,2013-01-04 14:06:00,
2013-01-04 07:21:00,17.1,6.0,25.85,WNW,299,8.0,13.0,61,0.00,,,0.00,weatherlink.com 1.10,2013-01-04 14:21:00,
2013-01-04 07:36:00,17.9,6.0,25.85,NW,304,10.0,13.0,60,0.00,,,0.00,weatherlink.com 1.10,2013-01-04 14:36:00,
2013-01-04 07:51:00,18.1,6.0,25.86,NW,308,10.0,12.0,59,0.00,,,0.00,weatherlink.com 1.10,2013-01-04 14:51:00,
2013-01-04 08:06:00,17.7,6.0,25.86,NW,315,8.0,13.0,61,0.00,,,0.00,weatherlink.com 1.10,2013-01-04 15:06:00,
2013-01-04 08:21:00,18.9,7.0,25.86,WNW,296,7.0,12.0,60,0.00,,,0.00,weatherlink.com 1.10,2013-01-04 15:21:00,
2013-01-04 08:36:00,20.4,8.0,25.86,NW,308,9.0,12.0,59,0.00,,,0.00,weatherlink.com 1.10,2013-01-04 15:36:00,
2013-01-04 08:51:00,22.1,8.0,25.86,NW,308,9.0,15.0,56,0.00,,,0.00,weatherlink.com 1.10,2013-01-04 15:51:00,
2013-01-04 09:06:00,23.5,10.0,25.87,NW,308,9.0,13.0,56,0.00,,,0.00,weatherlink.com 1.10,2013-01-04 16:06:00,
2013-01-04 09:21:00,25.0,11.0,25.87,NW,308,7.0,11.0,56,0.00,,,0.00,weatherlink.com 1.10,2013-01-04 16:21:00,
2013-01-04 09:36:00,27.3,13.0,25.87,WNW,301,5.0,11.0,55,0.00,,,0.00,weatherlink.com 1.10,2013-01-04 16:36:00,
2013-01-04 09:51:00,29.2,14.0,25.87,NW,312,9.0,12.0,53,0.00,,,0.00,weatherlink.com 1.10,2013-01-04 16:51:00,
2013-01-04 10:07:00,31.3,14.0,25.87,West,270,2.0,11.0,50,0.00,,,0.00,weatherlink.com 1.10,2013-01-04 17:07:00,
2013-01-04 10:22:00,33.5,17.0,25.87,WNW,283,6.0,7.0,50,0.00,,,0.00,weatherlink.com 1.10,2013-01-04 17:22:00,
2013-01-04 10:37:00,35.2,17.0,25.87,WNW,284,4.0,6.0,48,0.00,,,0.00,weatherlink.com 1.10,2013-01-04 17:37:00,
2013-01-04 10:52:00,35.3,17.0,25.86,NW,304,6.0,8.0,48,0.00,,,0.00,weatherlink.com 1.10,2013-01-04 17:52:00,
2013-01-04 11:07:00,37.7,19.0,25.85,West,278,3.0,6.0,48,0.00,,,0.00,weatherlink.com 1.10,2013-01-04 18:07:00,
2013-01-04 11:22:00,39.0,20.0,25.84,WNW,294,3.0,5.0,46,0.00,,,0.00,weatherlink.com 1.10,2013-01-04 18:22:00,
2013-01-04 11:37:00,39.5,19.0,25.83,West,280,5.0,7.0,44,0.00,,,0.00,weatherlink.com 1.10,2013-01-04 18:37:00,
2013-01-04 11:52:00,39.5,20.0,25.83,WNW,293,6.0,7.0,45,0.00,,,0.00,weatherlink.com 1.10,2013-01-04 18:52:00,
2013-01-04 12:07:00,40.1,21.0,25.82,WNW,302,5.0,7.0,46,0.00,,,0.00,weatherlink.com 1.10,2013-01-04 19:07:00,
2013-01-04 12:22:00,40.9,20.0,25.82,NW,316,4.0,8.0,43,0.00,,,0.00,weatherlink.com 1.10,2013-01-04 19:22:00,
2013-01-04 12:37:00,41.6,20.0,25.81,WNW,293,4.0,7.0,43,0.00,,,0.00,weatherlink.com 1.10,2013-01-04 19:37:00,
2013-01-04 12:52:00,43.4,23.0,25.80,West,269,2.0,7.0,44,0.00,,,0.00,weatherlink.com 1.10,2013-01-04 19:52:00,
2013-01-04 13:07:00,44.1,22.0,25.79,West,259,4.0,6.0,42,0.00,,,0.00,weatherlink.com 1.10,2013-01-04 20:07:00,
2013-01-04 13:22:00,43.2,22.0,25.79,WSW,237,5.0,7.0,44,0.00,,,0.00,weatherlink.com 1.10,2013-01-04 20:22:00,
2013-01-04 13:37:00,42.0,23.0,25.79,WSW,237,6.0,8.0,48,0.00,,,0.00,weatherlink.com 1.10,2013-01-04 20:37:00,
2013-01-04 13:52:00,41.7,24.0,25.79,WSW,238,4.0,5.0,50,0.00,,,0.00,weatherlink.com 1.10,2013-01-04 20:52:00,
2013-01-04 14:07:00,42.1,25.0,25.79,SW,231,5.0,6.0,50,0.00,,,0.00,weatherlink.com 1.10,2013-01-04 21:07:00,
2013-01-04 14:22:00,41.6,23.0,25.78,West,267,6.0,8.0,48,0.00,,,0.00,weatherlink.com 1.10,2013-01-04 21:22:00,
2013-01-04 14:37:00,40.9,22.0,25.78,WSW,249,6.0,9.0,47,0.00,,,0.00,weatherlink.com 1.10,2013-01-04 21:37:00,
2013-01-04 14:52:00,40.7,23.0,25.78,West,264,5.0,8.0,50,0.00,,,0.00,weatherlink.com 1.10,2013-01-04 21:52:00,
2013-01-04 15:07:00,40.6,25.0,25.78,West,259,1.0,7.0,54,0.00,,,0.00,weatherlink.com 1.10,2013-01-04 22:07:00,
2013-01-04 15:22:00,41.0,24.0,25.78,NW,308,3.0,5.0,52,0.00,,,0.00,weatherlink.com 1.10,2013-01-04 22:22:00,
2013-01-04 15:37:00,39.2,23.0,25.78,WNW,294,3.0,6.0,52,0.00,,,0.00,weatherlink.com 1.10,2013-01-04 22:37:00,
2013-01-04 15:52:00,39.9,23.0,25.78,West,263,3.0,4.0,52,0.00,,,0.00,weatherlink.com 1.10,2013-01-04 22:52:00,
2013-01-04 16:07:00,38.2,23.0,25.78,WSW,255,3.0,4.0,55,0.00,,,0.00,weatherlink.com 1.10,2013-01-04 23:07:00,
2013-01-04 16:22:00,36.8,23.0,25.78,West,269,3.0,3.0,58,0.00,,,0.00,weatherlink.com 1.10,2013-01-04 23:22:00,
2013-01-04 16:38:00,34.3,22.0,25.78,West,276,1.0,2.0,62,0.00,,,0.00,weatherlink.com 1.10,2013-01-04 23:38:00,
2013-01-04 16:53:00,32.1,22.0,25.78,West,270,1.0,3.0,66,0.00,,,0.00,weatherlink.com 1.10,2013-01-04 23:53:00,
2013-01-04 17:08:00,31.6,21.0,25.78,WNW,300,5.0,6.0,66,0.00,,,0.00,weatherlink.com 1.10,2013-01-05 00:08:00,
2013-01-04 17:23:00,30.8,21.0,25.78,WNW,297,3.0,6.0,68,0.00,,,0.00,weatherlink.com 1.10,2013-01-05 00:23:00,
2013-01-04 17:38:00,30.5,21.0,25.78,NW,308,5.0,7.0,69,0.00,,,0.00,weatherlink.com 1.10,2013-01-05 00:38:00,
2013-01-04 17:53:00,31.1,21.0,25.78,NW,307,4.0,10.0,65,0.00,,,0.00,weatherlink.com 1.10,2013-01-05 00:53:00,
2013-01-04 18:08:00,28.7,20.0,25.78,NW,311,5.0,9.0,69,0.00,,,0.00,weatherlink.com 1.10,2013-01-05 01:08:00,
2013-01-04 18:23:00,26.9,19.0,25.78,NW,312,6.0,8.0,72,0.00,,,0.00,weatherlink.com 1.10,2013-01-05 01:23:00,
2013-01-04 18:38:00,27.5,19.0,25.77,NNE,15,7.0,8.0,69,0.00,,,0.00,weatherlink.com 1.10,2013-01-05 01:38:00,
2013-01-04 18:53:00,26.6,18.0,25.77,NW,319,8.0,9.0,69,0.00,,,0.00,weatherlink.com 1.10,2013-01-05 01:53:00,
2013-01-04 19:08:00,24.8,17.0,25.77,NW,312,5.0,9.0,71,0.00,,,0.00,weatherlink.com 1.10,2013-01-05 02:08:00,
2013-01-04 19:23:00,24.4,16.0,25.77,NW,322,6.0,9.0,71,0.00,,,0.00,weatherlink.com 1.10,2013-01-05 02:23:00,
2013-01-04 19:38:00,25.4,17.0,25.77,NW,308,6.0,10.0,69,0.00,,,0.00,weatherlink.com 1.10,2013-01-05 02:38:00,
2013-01-04 19:53:00,26.0,16.0,25.77,NW,310,5.0,9.0,67,0.00,,,0.00,weatherlink.com 1.10,2013-01-05 02:53:00,
2013-01-04 20:08:00,25.6,16.0,25.77,NNW,332,5.0,8.0,67,0.00,,,0.00,weatherlink.com 1.10,2013-01-05 03:08:00,
2013-01-04 20:23:00,24.6,15.0,25.77,NW,308,5.0,9.0,68,0.00,,,0.00,weatherlink.com 1.10,2013-01-05 03:23:00,
2013-01-04 20:38:00,23.9,15.0,25.78,NW,316,4.0,7.0,69,0.00,,,0.00,weatherlink.com 1.10,2013-01-05 03:38:00,
2013-01-04 20:53:00,23.9,15.0,25.78,NW,304,4.0,9.0,69,0.00,,,0.00,weatherlink.com 1.10,2013-01-05 03:53:00,
2013-01-04 21:08:00,23.1,14.0,25.77,NW,309,5.0,7.0,69,0.00,,,0.00,weatherlink.com 1.10,2013-01-05 04:08:00,
2013-01-04 21:23:00,24.7,15.0,25.77,NW,304,4.0,7.0,66,0.00,,,0.00,weatherlink.com 1.10,2013-01-05 04:23:00,
2013-01-04 21:38:00,24.8,14.0,25.78,WNW,297,3.0,6.0,64,0.00,,,0.00,weatherlink.com 1.10,2013-01-05 04:38:00,
2013-01-04 21:53:00,21.9,13.0,25.78,WNW,287,2.0,6.0,68,0.00,,,0.00,weatherlink.com 1.10,2013-01-05 04:53:00,
2013-01-04 22:23:00,19.0,11.0,25.79,WNW,293,4.0,5.0,72,0.00,,,0.00,weatherlink.com 1.10,2013-01-05 05:23:00,
2013-01-04 22:38:00,17.8,11.0,25.79,WNW,297,5.0,6.0,73,0.00,,,0.00,weatherlink.com 1.10,2013-01-05 05:38:00,
2013-01-04 22:53:00,17.9,11.0,25.79,WNW,300,4.0,5.0,73,0.00,,,0.00,weatherlink.com 1.10,2013-01-05 05:53:00,
2013-01-04 23:08:00,18.6,11.0,25.78,NW,305,5.0,5.0,71,0.00,,,0.00,weatherlink.com 1.10,2013-01-05 06:08:00,
2013-01-04 23:23:00,18.6,10.0,25.78,WNW,302,4.0,5.0,69,0.00,,,0.00,weatherlink.com 1.10,2013-01-05 06:23:00,
2013-01-04 23:38:00,17.6,10.0,25.77,WNW,302,6.0,6.0,71,0.00,,,0.00,weatherlink.com 1.10,2013-01-05 06:38:00,
2013-01-04 23:53:00,18.1,10.0,25.77,NW,304,2.0,6.0,70,0.00,,,0.00,weatherlink.com 1.10,2013-01-05 06:53:00,